Torna al catalogo

COSMOS 2142

AttivoMilitarePO
NORAD 21230·PAYLOAD·🇷🇺 Russia

Lanciato Apr 16, 1991 da Plesetsk Cosmodrome

Loading…

Prossimi Passaggi (prossime 24 ore)

TLE

AggiornatoSource: Space-Track

Epoca: Sep 14, 2026, 05:19 UTC

1 21230U 91029A   26257.22154975  .00000064  00000-0  52201-4 0  9990
2 21230  82.9596 173.2016 0037199 322.4546 189.9397 13.73383363774570

Traccia COSMOS 2142 in tempo reale con AllMySat

Download on the App Store